Fort Lewis, WA
on Sunday, January 6, 2013

Sunday
Previous Day Next Day
Daily Summary
 ActualAverage (KOLM)Record (KOLM)
Temperature
Mean Temperature °F / °C 39°F / 4°C  
Max Temperature 46°F / 8°C 45°F / 7°C 56°F / 13°C (2002)
Min Temperature 35°F / 2°C 34°F / 1°C 3°F / -16°C (1979)
Degree Days
Heating Degree Days 24 26  
Month to date heating degree days 156  
Since 1 July heating degree days 2426  
Cooling Degree Days 0 0  
Month to date cooling degree days 0  
Year to date cooling degree days 0  
Moisture
Dew Point 38°F / 3°C   
Average Humidity 90    
Maximum Humidity 100    
Minimum Humidity 73    
Precipitation
Precipitation 0.03 in / 0.76 cm 0.26 in / 6.60 cm 1.35 in / 3.43 cm (2002)
Month to date precipitation 1.53  
Year to date precipitation 1.53  
Wind
Wind Speed 7 mph / 11 km/h   
Max Wind Speed 13 mph / 21 km/h   
Max Gust Speed mph / km/h   
Visibility 10 miles / 16 kilometers   
Events     

Key: T is trace of precipitation, MM is missing value
Source: NWS Daily Summary
Time(PST)TemperatureDew PointHumidity Pressure Visibility Wind DirectionWind SpeedGust SpeedPrecipitationEvents Conditions
12:28 AM 39.2°F / 4.0°C 37.4°F / 3.0°C 93% 30.15 in / 1020.9 hPa 10.0 miles / 16.1 kilometers SSE 10.4 mph / 16.7 km/h - N/A   Mostly Cloudy
12:58 AM 37.9°F / 3.3°C 36.7°F / 2.6°C 95% 30.17 in / 1021.6 hPa 10.0 miles / 16.1 kilometers SSE 9.2 mph / 14.8 km/h - N/A   Partly Cloudy
1:58 AM 35.6°F / 2.0°C 35.1°F / 1.7°C 98% 30.18 in / 1021.9 hPa 10.0 miles / 16.1 kilometers South 8.1 mph / 13.0 km/h - N/A   Clear
2:58 AM 35.6°F / 2.0°C 35.4°F / 1.9°C 99% 30.19 in / 1022.3 hPa 10.0 miles / 16.1 kilometers SE 6.9 mph / 11.1 km/h - N/A   Overcast
3:53 AM 35.6°F / 2.0°C 35.6°F / 2.0°C 100% 30.15 in / 1020.9 hPa 10.0 miles / 16.1 kilometers SSE 5.8 mph / 9.3 km/h - N/A   Overcast
3:58 AM 36.5°F / 2.5°C 36.3°F / 2.4°C 99% 30.17 in / 1021.6 hPa 10.0 miles / 16.1 kilometers SSE 4.6 mph / 7.4 km/h - N/A   Overcast
4:13 AM 35.6°F / 2.0°C 35.6°F / 2.0°C 100% 30.15 in / 1020.9 hPa 10.0 miles / 16.1 kilometers SSE 5.8 mph / 9.3 km/h - N/A   Scattered Clouds
4:58 AM 37.0°F / 2.8°C 36.7°F / 2.6°C 99% 30.16 in / 1021.2 hPa 10.0 miles / 16.1 kilometers SE 6.9 mph / 11.1 km/h - N/A   Overcast
5:23 AM 37.4°F / 3.0°C 37.4°F / 3.0°C 100% 30.15 in / 1020.9 hPa 10.0 miles / 16.1 kilometers SSE 5.8 mph / 9.3 km/h - N/A   Overcast
5:43 AM 37.4°F / 3.0°C 37.4°F / 3.0°C 100% 30.15 in / 1020.9 hPa 10.0 miles / 16.1 kilometers SE 5.8 mph / 9.3 km/h - N/A   Overcast
5:58 AM 37.4°F / 3.0°C 37.2°F / 2.9°C 99% 30.17 in / 1021.6 hPa 10.0 miles / 16.1 kilometers SE 6.9 mph / 11.1 km/h - N/A   Overcast
6:38 AM 39.2°F / 4.0°C 37.4°F / 3.0°C 93% 30.15 in / 1020.9 hPa 10.0 miles / 16.1 kilometers South 5.8 mph / 9.3 km/h - N/A   Overcast
6:58 AM 39.0°F / 3.9°C 37.0°F / 2.8°C 93% 30.18 in / 1021.9 hPa 10.0 miles / 16.1 kilometers SSE 5.8 mph / 9.3 km/h - N/A   Overcast
7:28 AM 37.4°F / 3.0°C 37.4°F / 3.0°C 100% 30.15 in / 1020.9 hPa 10.0 miles / 16.1 kilometers SE 8.1 mph / 13.0 km/h - N/A   Overcast
7:58 AM 38.5°F / 3.6°C 37.2°F / 2.9°C 95% 30.18 in / 1021.9 hPa 10.0 miles / 16.1 kilometers SE 10.4 mph / 16.7 km/h - N/A   Overcast
8:43 AM 39.2°F / 4.0°C 37.4°F / 3.0°C 93% 30.18 in / 1021.9 hPa 10.0 miles / 16.1 kilometers SSE 5.8 mph / 9.3 km/h - N/A   Overcast
8:48 AM 39.2°F / 4.0°C 37.4°F / 3.0°C 93% 30.18 in / 1021.9 hPa 10.0 miles / 16.1 kilometers SSE 5.8 mph / 9.3 km/h - N/A   Mostly Cloudy
8:49 AM 39.2°F / 4.0°C 37.4°F / 3.0°C 93% 30.18 in / 1021.9 hPa 10.0 miles / 16.1 kilometers SSE 5.8 mph / 9.3 km/h - N/A   Light Drizzle
8:58 AM 38.7°F / 3.7°C 38.1°F / 3.4°C 98% 30.20 in / 1022.6 hPa 10.0 miles / 16.1 kilometers SSE 6.9 mph / 11.1 km/h - 0.00 in / 0.0 cm   Light Drizzle
8:59 AM 39.2°F / 4.0°C 39.2°F / 4.0°C 100% 30.18 in / 1021.9 hPa 10.0 miles / 16.1 kilometers SSE 6.9 mph / 11.1 km/h - N/A   Overcast
9:14 AM 39.2°F / 4.0°C 39.2°F / 4.0°C 100% 30.17 in / 1021.6 hPa 10.0 miles / 16.1 kilometers SE 5.8 mph / 9.3 km/h - N/A   Overcast
9:58 AM 40.8°F / 4.9°C 39.9°F / 4.4°C 97% 30.20 in / 1022.6 hPa 10.0 miles / 16.1 kilometers SE 4.6 mph / 7.4 km/h - 0.00 in / 0.0 cm   Mostly Cloudy
10:58 AM 44.6°F / 7.0°C 39.0°F / 3.9°C 81% 30.20 in / 1022.6 hPa 10.0 miles / 16.1 kilometers SSE 9.2 mph / 14.8 km/h - N/A   Mostly Cloudy
11:58 AM 45.3°F / 7.4°C 39.7°F / 4.3°C 81% 30.17 in / 1021.5 hPa 10.0 miles / 16.1 kilometers South 5.8 mph / 9.3 km/h - N/A   Overcast
12:28 PM 46.4°F / 8.0°C 39.2°F / 4.0°C 76% 30.14 in / 1020.5 hPa 10.0 miles / 16.1 kilometers South 8.1 mph / 13.0 km/h - N/A   Overcast
12:38 PM 46.4°F / 8.0°C 39.2°F / 4.0°C 76% 30.14 in / 1020.5 hPa 10.0 miles / 16.1 kilometers South 8.1 mph / 13.0 km/h - N/A   Overcast
12:58 PM 46.0°F / 7.8°C 38.8°F / 3.8°C 76% 30.16 in / 1021.2 hPa 10.0 miles / 16.1 kilometers SSW 8.1 mph / 13.0 km/h - N/A   Overcast
1:58 PM 46.0°F / 7.8°C 37.8°F / 3.2°C 73% 30.14 in / 1020.5 hPa 10.0 miles / 16.1 kilometers South 12.7 mph / 20.4 km/h - N/A   Mostly Cloudy
2:58 PM 45.5°F / 7.5°C 38.3°F / 3.5°C 76% 30.14 in / 1020.5 hPa 10.0 miles / 16.1 kilometers South 9.2 mph / 14.8 km/h - N/A   Overcast
3:58 PM 45.1°F / 7.3°C 38.3°F / 3.5°C 77% 30.12 in / 1019.9 hPa 10.0 miles / 16.1 kilometers South 5.8 mph / 9.3 km/h - N/A   Overcast
4:58 PM 44.8°F / 7.1°C 37.2°F / 2.9°C 75% 30.11 in / 1019.5 hPa 10.0 miles / 16.1 kilometers South 4.6 mph / 7.4 km/h - N/A   Overcast
5:58 PM 44.2°F / 6.8°C 37.6°F / 3.1°C 77% 30.10 in / 1019.2 hPa 10.0 miles / 16.1 kilometers South 8.1 mph / 13.0 km/h - N/A   Scattered Clouds
6:55 PM 42.8°F / 6.0°C 37.4°F / 3.0°C 81% 30.09 in / 1018.7 hPa 10.0 miles / 16.1 kilometers Variable 6.9 mph / 11.1 km/h - N/A   Overcast
7:57 PM 42.8°F / 6.0°C 37.4°F / 3.0°C 81% 30.08 in / 1018.5 hPa 10.0 miles / 16.1 kilometers SSE 6.9 mph / 11.1 km/h - N/A   Mostly Cloudy
8:41 PM 42.8°F / 6.0°C 37.4°F / 3.0°C 81% 30.08 in / 1018.5 hPa 10.0 miles / 16.1 kilometers SSE 6.9 mph / 11.1 km/h - N/A   Mostly Cloudy
8:58 PM 41.5°F / 5.3°C 38.8°F / 3.8°C 90% 30.06 in / 1017.8 hPa 10.0 miles / 16.1 kilometers SE 5.8 mph / 9.3 km/h - 0.01 in / 0.3 cm   Overcast
9:58 PM 41.4°F / 5.2°C 39.4°F / 4.1°C 93% 30.04 in / 1017.2 hPa 10.0 miles / 16.1 kilometers ESE 2.3 mph / 3.7 km/h - 0.01 in / 0.3 cm   Overcast
10:58 PM 40.3°F / 4.6°C 39.9°F / 4.4°C 99% 30.01 in / 1016.1 hPa 10.0 miles / 16.1 kilometers SE 6.9 mph / 11.1 km/h - N/A   Overcast
11:58 PM 40.6°F / 4.8°C 40.1°F / 4.5°C 98% 30.00 in / 1015.8 hPa 10.0 miles / 16.1 kilometers SE 3.5 mph / 5.6 km/h - 0.01 in / 0.3 cm   Overcast
Moon Phase
Jan. 06 Jan. 11 Jan. 18 Jan. 26 Feb. 03
Sunrise:07:55 AM (PST) Moon Rise:02:07 AM (PST)1/6
Sunset:04:37 PM (PST) Moon Set:12:15 PM (PST)1/6

Copyright © 2014 The Weather Underground, Inc.